Wind_Speed
4 3 2 2 2 2 4 6 8 11 14 15 16 18 20 22 23 24 26 28 29 29 29 29 27 22 18 16 15 15 15 16 19 21 23 25 28 30 31 34 37 40 42 43 47 52 56 59 62 63 64 65 64 64 63 62 60 57 51 45 42 41 40 39 38 35 33 30 28 26 24 23 22 23 23 24 24 23 24 25 27 31 35 42 47
6 4 3 3 3 3 5 6 8 9 11 13 14 15 18 21 23 24 25 28 29 30 30 29 29 26 21 18 16 15 16 18 20 21 23 25 28 30 31 34 37 39 41 42 45 51 56 59 61 63 64 65 66 65 65 64 62 61 57 51 44 41 40 40 39 37 35 32 30 28 27 25 23 22 21 21 22 22 23 24 25 28 31 35 41
8 6 5 4 4 5 6 7 8 9 10 11 12 13 16 18 21 23 25 26 28 30 30 31 31 29 26 21 18 17 18 19 20 22 23 25 27 30 31 33 36 39 41 42 45 51 56 58 61 62 63 65 66 66 65 65 64 62 61 57 50 43 40 39 39 37 36 34 32 30 28 26 25 22 20 19 19 20 21 23 24 26 28 31 35
11 9 7 6 6 6 7 8 8 9 10 11 11 12 15 16 18 21 23 24 26 28 30 31 32 32 30 25 21 20 20 21 22 23 24 26 28 30 31 33 35 38 40 42 46 51 55 57 60 62 63 64 66 67 66 65 65 64 63 61 57 48 41 39 38 37 36 35 33 31 29 27 26 23 21 20 19 19 19 20 21 24 26 29 32
13 11 10 8 8 8 8 8 9 9 10 11 12 13 15 16 17 19 21 22 24 26 28 30 31 32 31 28 24 21 22 22 23 24 25 27 29 31 32 33 34 37 40 43 46 51 54 56 58 61 63 63 64 66 67 66 66 65 64 63 61 55 46 40 38 37 36 35 33 32 29 27 26 24 22 20 19 19 19 19 19 21 23 26 28
15 14 13 11 11 10 9 9 10 9 10 12 13 13 16 18 17 18 19 21 23 25 26 29 31 31 31 31 27 23 23 24 24 25 26 28 30 31 33 33 34 36 39 43 47 51 54 55 58 60 62 63 63 65 67 67 66 66 65 64 64 60 52 43 38 37 36 35 34 32 30 28 26 24 23 21 20 19 19 19 19 19 20 22 24
18 17 15 14 14 12 11 11 11 10 11 13 13 14 17 19 19 18 18 20 23 24 25 28 30 31 31 33 32 27 24 25 25 26 27 29 31 33 34 34 34 36 39 42 46 50 53 55 58 60 61 62 62 64 66 67 67 67 67 65 65 63 58 48 40 37 37 36 34 32 30 28 27 25 23 22 20 19 18 18 18 17 18 18 20
21 19 18 18 17 15 14 13 12 12 12 14 14 15 18 21 21 19 18 20 23 24 25 27 29 31 32 34 35 33 29 26 27 27 29 31 33 34 34 34 34 35 38 42 45 49 52 54 57 60 61 62 62 63 65 68 68 67 67 67 65 64 62 55 45 40 38 36 35 33 30 28 27 25 24 22 21 20 18 17 16 16 16 16 16
25 21 20 20 21 19 17 15 14 13 14 15 15 16 18 21 22 20 18 19 23 25 25 27 28 30 32 34 36 37 34 30 28 29 31 33 34 35 36 35 35 36 38 41 45 48 52 54 56 59 61 62 62 63 64 67 68 68 67 67 66 65 64 60 51 43 39 37 35 34 31 29 27 26 24 23 22 21 20 18 17 16 15 15 15
27 22 21 22 23 22 20 18 16 15 15 15 16 18 19 21 22 20 18 19 23 25 26 27 28 30 31 33 36 37 37 34 31 30 32 33 34 36 38 38 37 37 38 40 44 47 51 53 55 58 60 62 62 62 63 66 68 69 68 68 67 66 66 63 56 47 41 39 37 35 33 30 28 26 24 23 22 21 20 20 18 17 16 15 15
30 22 21 23 24 24 23 21 18 16 14 14 17 20 21 21 22 21 19 19 23 26 27 28 29 29 30 32 34 36 37 37 35 33 32 33 34 36 39 40 40 39 39 40 42 46 50 52 55 57 59 61 62 62 63 65 67 69 69 68 68 67 66 65 60 51 43 41 39 37 35 33 30 27 25 23 21 20 20 20 19 18 18 17 16
32 23 20 22 24 26 26 25 21 18 14 13 16 21 23 22 23 22 20 20 24 27 29 30 30 29 29 31 33 35 36 37 37 35 34 33 34 36 39 40 40 40 39 39 42 46 49 51 54 57 59 60 61 61 62 64 66 69 70 69 68 68 67 66 64 56 47 42 40 38 36 34 31 28 26 23 21 20 19 19 19 18 18 17 17
32 24 21 22 23 26 28 28 26 21 17 14 14 19 23 24 23 23 22 22 26 28 30 31 30 28 28 30 32 34 36 37 37 37 36 35 36 37 39 39 40 39 39 40 42 45 48 50 53 56 58 59 60 60 61 63 65 68 70 70 69 68 67 66 66 61 52 45 41 40 37 35 32 29 27 24 22 20 19 18 18 18 17 17 17
34 29 26 26 26 28 30 31 30 26 21 18 16 18 23 25 24 24 24 25 28 30 30 32 31 27 27 29 32 34 36 37 38 38 38 37 36 37 38 39 39 39 39 39 42 44 47 50 52 55 57 58 59 59 60 62 64 67 69 70 69 68 68 67 67 65 57 48 43 41 39 36 34 30 27 25 22 20 19 18 17 18 18 18 18
36 32 29 29 30 31 31 31 33 31 26 22 19 20 23 25 25 26 27 28 30 30 30 31 30 27 27 30 33 34 36 38 39 40 39 38 36 35 36 37 37 37 37 39 41 44 47 49 51 54 56 57 58 59 59 60 62 65 68 70 69 68 68 67 67 66 61 52 46 43 41 38 35 32 28 25 23 20 19 18 17 17 18 18 19
36 34 33 32 31 32 32 31 34 35 31 26 23 23 25 27 27 28 29 30 31 30 29 29 28 27 28 32 34 35 36 38 39 41 41 39 36 35 34 34 34 35 37 39 42 45 47 49 51 53 55 56 57 59 59 60 61 64 67 69 69 69 68 68 67 66 64 57 49 45 43 40 37 34 30 26 23 20 18 17 17 17 17 18 19
38 39 41 40 37 36 34 31 31 34 35 32 28 26 28 30 30 30 31 32 31 30 28 28 28 28 30 34 35 35 36 38 39 41 41 40 37 35 35 35 34 35 37 40 43 46 49 50 51 53 54 55 56 58 59 60 60 63 65 68 69 69 68 68 67 67 66 61 52 47 45 43 39 35 32 28 24 21 18 17 16 16 16 17 19
47 48 46 42 39 38 35 32 31 33 36 36 32 30 32 33 32 32 33 32 32 30 29 29 30 31 32 34 33 33 35 37 39 41 40 39 37 37 37 37 38 38 39 42 44 47 50 51 51 53 54 54 55 56 58 60 60 62 64 67 69 69 68 68 68 67 67 64 56 49 46 44 41 37 33 30 26 22 19 16 15 15 15 16 17
51 50 46 42 40 39 36 34 33 35 37 38 35 34 35 34 33 33 34 33 32 31 30 31 33 33 32 31 31 33 35 37 39 40 39 38 38 37 37 38 39 40 41 43 44 47 49 50 50 51 53 54 54 55 57 59 60 61 63 66 68 68 68 68 67 67 67 65 60 52 47 45 42 39 35 31 27 23 19 16 14 13 13 14 15
49 47 45 43 42 40 37 36 35 36 38 39 37 36 37 36 35 35 35 35 34 33 33 33 34 32 30 29 31 33 35 37 39 39 38 38 39 38 37 38 40 41 41 43 45 47 48 49 50 52 53 53 54 54 55 58 60 61 62 64 66 68 68 67 67 66 66 66 62 54 48 46 43 39 36 33 29 25 21 18 15 13 12 12 13
47 47 47 46 45 42 39 37 37 38 40 41 41 40 40 39 37 37 37 36 36 35 34 33 32 30 29 30 32 34 36 38 38 37 38 40 41 40 39 40 41 42 42 45 47 48 49 50 52 53 53 53 53 53 54 56 59 61 62 63 65 66 67 67 67 66 66 66 63 56 49 45 43 40 37 34 30 26 22 19 16 13 12 11 11
47 47 47 48 48 45 40 38 40 42 43 43 44 43 43 42 41 40 38 38 37 36 34 33 32 30 30 31 33 34 36 37 36 37 39 41 41 41 42 42 43 43 45 47 49 50 51 53 54 53 52 52 52 53 54 56 58 60 62 62 63 65 67 67 66 66 65 65 64 59 50 45 42 39 36 33 30 26 22 19 16 15 13 12 11
48 48 48 49 50 47 42 39 42 45 45 46 46 46 45 43 42 40 39 38 37 35 35 34 32 31 31 32 33 35 37 36 36 38 40 40 39 41 43 45 45 46 47 48 49 51 52 52 52 51 51 51 51 52 53 55 57 59 61 62 63 64 65 66 65 65 65 65 64 60 52 44 41 38 35 32 29 25 22 19 18 16 15 13 12
48 48 49 50 51 49 44 41 43 46 47 48 48 46 44 42 40 39 39 38 36 35 35 34 33 33 33 33 34 37 38 37 36 37 38 38 38 41 43 45 45 46 46 47 50 51 51 50 49 49 49 50 52 52 53 55 57 58 60 61 62 63 64 65 65 65 64 64 64 61 54 45 40 38 35 32 29 26 23 21 19 17 16 14 13
48 49 50 49 49 48 46 44 44 45 47 48 47 44 41 40 40 39 38 37 36 36 36 35 34 34 34 35 36 38 37 35 34 35 38 38 39 41 43 44 44 44 45 48 50 51 50 49 47 48 49 51 52 53 54 55 56 57 58 60 61 61 63 64 64 64 63 63 63 62 55 46 39 37 34 31 28 26 24 22 20 19 17 16 14
49 49 49 49 48 47 46 46 45 44 45 46 44 42 41 40 40 39 38 38 38 38 37 35 34 35 36 36 36 35 34 33 34 37 39 40 41 43 43 43 43 45 46 48 49 50 50 48 46 47 49 50 52 53 53 54 55 56 57 58 59 60 61 63 63 63 62 62 62 61 57 47 39 35 33 30 28 26 24 22 21 20 18 17 16
51 50 48 47 47 48 48 47 46 45 46 46 43 42 41 40 39 39 39 39 39 39 38 36 35 35 35 35 35 34 34 34 37 40 42 42 43 43 42 42 44 46 47 48 49 49 47 45 45 46 48 50 52 53 53 53 53 54 54 55 57 59 60 61 62 62 62 61 61 61 57 48 39 34 32 30 27 25 23 22 21 20 19 18 17
48 50 49 48 48 48 47 47 47 47 47 46 44 42 41 39 39 40 40 40 41 40 40 39 38 37 36 35 35 36 36 37 39 42 43 44 43 41 41 42 44 45 47 48 48 46 44 43 44 45 47 50 52 53 53 52 52 52 53 53 55 57 59 60 61 62 61 60 60 60 57 50 40 33 31 29 27 25 23 21 20 20 19 18 17
42 46 49 50 49 49 47 46 46 48 48 48 46 44 42 42 42 42 42 42 42 42 42 40 39 38 37 37 37 38 39 40 42 44 45 44 41 40 41 43 44 45 47 47 46 44 42 42 44 45 47 49 52 53 53 51 50 51 51 51 53 56 57 59 60 61 61 60 59 59 57 51 41 33 29 28 26 25 23 21 20 19 18 18 17
43 44 47 47 46 47 47 47 48 48 47 46 45 44 43 44 45 44 43 44 44 43 42 41 40 39 39 40 41 42 43 44 44 45 45 44 42 41 43 44 45 45 47 46 44 43 43 42 44 46 47 49 52 54 54 51 49 49 49 50 52 54 56 57 59 60 60 60 58 58 57 52 42 33 28 26 25 24 23 21 20 19 18 18 17
52 51 50 48 46 48 49 49 49 48 46 45 44 43 41 41 43 43 43 43 43 43 42 41 39 39 42 45 46 45 45 46 46 45 44 43 42 43 44 46 46 46 46 46 45 44 44 43 44 46 47 49 52 55 55 52 49 48 48 48 50 53 55 56 58 59 60 59 58 57 56 52 43 33 28 25 24 22 22 21 20 19 19 18 18
60 58 54 50 49 53 57 57 54 52 52 49 46 44 44 43 44 43 41 41 42 43 43 43 41 41 43 46 46 46 46 46 46 45 43 43 43 45 47 47 47 46 47 47 47 45 44 43 44 45 46 48 51 55 56 53 49 47 46 47 49 51 53 55 56 57 58 58 57 56 56 52 43 33 27 25 23 22 21 21 20 20 20 20 20
56 55 51 45 43 44 49 54 56 56 54 50 46 46 48 49 48 46 45 45 45 45 44 42 41 43 47 49 49 48 47 46 45 43 43 44 45 47 48 48 48 48 49 49 48 45 42 41 42 44 46 49 52 55 55 52 48 46 45 45 47 50 52 54 55 56 57 58 57 55 55 52 44 34 27 24 23 22 21 20 20 20 21 21 21
46 47 45 45 45 43 42 46 51 51 49 47 48 49 51 51 50 49 48 48 46 45 45 44 45 47 50 51 50 47 45 44 44 44 45 47 47 48 49 49 49 49 49 47 45 42 39 40 42 44 46 50 53 55 55 51 47 45 45 45 46 48 50 52 54 55 56 57 56 55 54 52 44 34 27 24 23 22 20 20 20 20 21 21 22
45 44 42 44 48 48 47 49 51 49 47 48 50 52 53 54 53 52 50 48 45 45 47 47 47 48 50 50 48 46 46 46 47 48 49 49 49 49 48 47 46 45 43 41 40 38 39 41 43 45 48 51 54 55 55 51 47 44 44 44 45 47 49 51 52 54 55 56 56 54 53 51 44 34 26 23 22 21 20 20 20 20 21 21 22
49 49 48 48 48 48 48 53 56 55 53 52 53 53 54 55 54 52 50 47 45 45 47 47 46 46 47 48 48 49 50 50 50 49 49 49 47 46 45 43 42 40 39 39 39 39 41 43 44 46 49 52 53 54 54 51 46 43 43 43 44 45 48 49 51 52 54 56 55 53 52 50 44 34 26 22 21 20 19 19 20 20 21 21 22
46 48 49 52 53 54 55 58 61 61 59 57 56 56 56 56 54 51 49 47 46 45 44 44 45 45 45 45 46 46 47 47 47 46 45 44 43 42 42 41 41 40 40 40 40 41 43 44 45 47 50 52 53 53 53 49 45 42 42 42 43 44 47 48 49 51 53 55 54 53 52 49 43 34 26 22 21 20 19 19 19 20 20 21 21
40 42 45 48 51 54 57 59 60 60 59 58 58 58 57 56 54 51 49 48 46 44 41 40 42 45 44 44 43 43 43 44 43 42 42 42 42 43 42 42 42 42 42 42 42 43 44 45 46 49 51 52 51 51 51 48 44 41 41 41 42 44 45 47 48 50 52 54 53 52 51 48 42 32 24 21 20 19 18 18 19 19 20 21 22
38 39 42 45 47 50 53 55 57 58 58 57 57 57 57 56 55 53 51 49 47 44 41 41 44 46 46 45 44 43 43 43 42 41 42 43 44 44 43 43 42 43 43 44 45 45 46 47 49 51 52 51 50 50 49 46 42 40 40 41 41 42 44 45 46 49 51 53 52 51 50 47 40 30 23 20 20 18 18 18 18 19 20 22 22
44 43 43 43 45 47 49 52 54 56 58 58 57 56 55 55 54 52 50 48 47 46 45 45 47 47 46 45 45 44 44 43 42 42 43 44 45 45 45 44 44 46 47 48 48 49 50 50 51 52 51 49 49 48 46 43 41 39 39 40 40 41 42 43 45 48 50 52 51 49 48 46 38 28 21 19 19 18 17 18 18 19 21 22 23
54 51 49 47 46 46 47 48 50 53 57 59 59 59 58 56 55 52 49 47 46 46 46 46 47 48 47 47 46 46 45 44 44 44 46 47 48 48 47 48 49 51 52 51 51 52 52 52 52 52 50 49 47 46 43 41 39 37 37 39 39 39 39 42 44 47 49 50 49 48 47 45 36 26 20 19 18 17 17 18 19 19 21 23 24
59 57 54 51 49 48 48 47 47 49 52 54 57 60 61 61 61 59 56 53 51 49 49 48 48 48 48 48 48 48 47 47 47 48 49 50 51 52 53 54 55 55 54 53 53 53 53 52 52 51 49 47 44 42 39 38 36 35 36 37 36 36 38 41 43 46 48 49 47 46 46 43 34 24 20 19 18 17 17 19 20 20 22 23 24
60 58 56 54 52 51 50 50 49 49 49 50 52 55 57 59 61 61 60 59 57 56 55 55 54 54 53 53 52 51 51 51 51 51 53 55 57 58 58 58 57 54 53 52 52 51 51 51 50 48 46 43 40 38 36 35 34 33 34 35 34 35 38 40 42 45 47 46 45 45 45 40 32 23 19 19 18 17 17 19 20 21 22 23 25
57 56 56 56 54 53 52 52 51 50 49 50 51 51 52 54 56 58 58 59 58 58 57 57 57 57 57 57 56 56 56 56 56 57 58 59 59 59 58 55 54 52 50 50 49 49 48 48 46 44 41 38 36 35 34 32 31 32 33 33 33 34 37 39 41 44 45 43 42 43 43 38 29 22 18 19 19 18 19 19 20 22 23 24 25
52 52 53 54 54 54 53 53 52 51 49 50 50 51 50 51 52 53 54 55 56 57 57 57 57 57 56 55 54 54 54 55 54 55 55 55 55 54 53 52 50 49 48 47 46 45 45 45 43 41 38 36 35 35 32 30 30 32 33 32 32 33 36 38 40 42 42 40 40 41 40 35 27 20 18 18 18 19 21 21 21 22 23 24 26
47 47 48 50 52 53 53 52 51 50 49 49 49 50 50 49 49 49 50 51 52 53 54 55 55 56 55 54 52 51 51 51 50 50 50 50 50 50 49 49 48 47 47 46 45 43 43 42 40 37 36 35 35 33 30 29 30 32 32 31 30 32 34 37 40 40 38 38 38 39 37 31 24 19 18 18 18 19 21 23 23 23 24 25 26
40 42 44 46 49 51 51 50 50 49 48 48 49 49 49 48 48 47 47 48 49 49 50 51 51 52 52 52 51 51 51 50 50 49 49 49 48 48 48 48 48 47 47 46 44 42 40 39 36 35 35 34 33 31 29 28 29 30 30 29 29 31 34 36 37 36 35 36 36 36 33 27 22 19 18 18 19 20 22 23 24 25 25 26 27
32 35 38 41 44 46 48 48 47 47 47 47 48 49 49 49 48 47 46 46 47 47 47 47 47 48 48 48 48 49 49 49 48 48 48 48 48 47 47 47 47 46 46 45 43 41 39 37 35 33 33 33 31 29 28 28 28 29 29 28 29 31 34 35 34 34 33 34 34 33 30 25 20 18 18 19 20 22 23 24 25 26 27 27 28
26 28 31 34 37 40 43 44 45 45 46 47 47 48 49 48 48 47 46 46 46 45 45 44 44 44 45 45 45 46 46 46 46 46 46 46 46 46 46 46 46 45 44 44 42 40 38 36 34 32 31 30 29 28 28 28 29 29 28 28 29 31 32 32 32 32 32 32 32 30 27 23 19 18 18 19 21 22 24 25 27 28 28 29 29
26 26 26 29 32 33 36 40 42 44 45 46 46 48 48 48 47 47 46 45 45 44 44 43 43 42 42 42 42 43 43 44 44 44 44 44 44 44 44 44 44 44 43 43 41 38 36 35 33 31 29 28 28 28 28 29 29 29 28 28 28 29 30 30 30 30 30 30 30 28 25 22 20 19 19 20 21 23 24 26 27 28 29 29 30
33 30 28 28 29 30 31 34 38 41 43 44 45 46 47 47 47 47 46 45 45 44 43 42 42 41 40 40 40 40 41 42 42 42 42 42 42 43 43 43 43 43 42 40 38 35 33 32 31 29 28 27 27 28 28 29 29 29 28 27 26 27 28 28 29 29 28 28 28 27 24 22 20 20 21 22 23 24 25 26 27 28 29 29 30
Wind_Direction
202 239 265 280 290 310 328 334 341 349 355 359 1 1 1 359 358 359 2 4 6 8 9 6 0 350 339 332 331 330 328 325 331 339 343 344 345 347 349 351 353 355 356 358 1 2 3 4 5 5 5 5 5 5 6 5 4 2 358 352 349 348 347 345 342 339 337 335 331 324 315 304 294 287 282 279 276 270 263 255 246 238 232 230 229
211 231 256 276 295 312 318 325 333 341 348 354 356 358 359 358 355 354 356 359 2 4 5 3 1 355 343 331 325 325 326 327 330 334 337 339 340 343 345 348 350 353 355 356 359 0 1 3 4 4 4 4 4 5 5 5 4 3 1 358 352 348 347 346 344 342 339 337 334 330 323 315 305 296 289 285 280 275 269 262 255 246 239 234 231
219 226 244 267 286 304 314 317 321 329 338 344 347 349 353 354 353 352 352 353 356 359 1 0 360 359 352 339 329 326 327 327 327 330 333 335 336 338 341 344 347 350 353 354 356 358 359 1 2 3 3 3 3 4 4 4 4 3 2 1 357 351 348 347 346 344 341 339 336 332 326 320 313 306 299 290 282 277 271 266 261 254 247 240 236
223 227 238 256 273 290 306 312 315 317 324 331 335 340 344 346 347 349 348 347 350 354 357 357 358 358 356 348 336 329 327 326 325 329 332 333 332 334 337 340 343 346 349 352 354 356 358 359 0 2 2 2 2 3 3 3 3 3 3 2 360 355 350 347 346 346 343 341 337 333 328 322 317 311 305 297 288 281 276 270 265 260 254 248 243
230 233 239 249 262 278 297 306 310 311 309 316 325 332 336 339 340 344 345 343 344 349 353 354 355 356 356 353 342 331 327 326 326 329 332 332 331 331 333 336 339 343 346 349 352 354 356 357 358 360 1 1 1 2 2 2 3 3 3 2 1 358 353 348 347 347 346 343 339 335 330 325 319 314 308 303 296 288 283 277 269 263 258 253 249
242 243 243 249 258 271 287 295 304 304 294 303 319 326 330 333 334 337 340 338 338 343 348 351 352 353 354 354 347 335 327 325 326 329 333 334 332 329 329 332 336 339 343 346 350 353 355 355 356 358 359 359 360 0 1 2 2 3 3 2 2 0 357 352 349 348 347 345 341 336 332 327 322 317 311 305 300 295 289 283 275 267 260 254 250
247 250 248 251 258 267 276 284 296 297 287 295 310 318 325 329 328 330 334 334 333 338 343 347 349 350 351 353 351 343 331 324 324 327 330 333 333 329 327 329 333 336 340 344 347 351 352 353 354 355 357 358 358 359 0 1 2 2 2 2 2 1 359 355 351 349 348 346 344 340 334 330 324 319 314 309 302 298 293 288 281 273 265 258 252
251 256 256 254 257 263 269 275 287 290 287 291 296 305 319 324 323 324 328 329 329 333 339 342 345 347 348 350 352 349 340 329 323 324 326 329 332 330 327 327 330 334 338 341 345 349 350 350 352 353 354 356 357 357 359 360 1 1 2 2 2 2 1 358 354 351 349 347 346 343 339 333 327 322 317 311 305 299 295 290 285 279 272 265 258
252 259 266 262 259 261 264 270 278 285 290 291 286 291 310 320 319 320 321 322 325 328 333 337 340 343 346 348 350 351 347 338 327 323 324 327 330 332 331 330 329 331 335 339 342 346 348 348 350 351 352 354 356 356 357 358 360 0 1 1 1 1 2 0 357 352 351 349 348 346 343 338 332 326 320 314 308 301 295 289 285 281 276 271 264
254 264 276 272 265 262 262 265 272 279 288 294 289 287 301 313 316 315 315 316 320 324 327 330 335 339 342 345 348 349 349 345 335 326 324 325 329 332 333 334 333 332 333 336 340 343 345 346 347 349 350 352 354 355 356 356 358 360 0 0 1 1 2 2 359 355 352 351 350 348 346 342 337 331 324 318 311 304 296 289 283 279 275 270 266
255 263 277 276 271 270 267 263 265 273 283 297 299 290 291 304 310 309 309 311 315 320 322 324 330 335 338 340 344 346 347 346 340 331 325 323 326 330 331 333 335 335 333 333 336 341 343 344 345 347 348 350 351 353 354 355 356 358 360 360 0 1 1 2 1 358 354 352 351 350 348 345 341 336 329 322 315 307 298 290 283 278 274 269 265
257 263 275 278 277 278 275 266 262 266 273 287 301 294 286 294 304 304 303 308 312 316 318 320 326 331 333 334 338 342 344 344 341 335 328 322 322 325 327 330 334 335 334 333 335 339 341 341 343 345 347 348 349 351 353 353 354 356 359 359 359 360 0 1 1 0 357 354 353 352 350 347 344 339 333 326 318 310 301 291 282 276 273 270 266
258 262 269 273 277 281 281 272 263 261 264 270 285 287 281 287 298 300 300 306 311 314 316 318 322 326 327 328 332 336 340 341 340 337 331 325 320 321 324 328 331 333 333 333 335 337 338 340 341 344 345 346 347 349 351 352 353 355 357 358 358 359 360 0 1 1 359 356 355 353 352 349 346 342 337 330 322 314 304 293 283 276 271 268 266
255 259 261 265 272 277 279 277 269 262 263 267 270 270 274 284 294 298 301 306 310 313 315 316 319 322 322 323 326 331 336 337 337 337 333 328 322 321 324 327 330 331 333 335 336 336 337 338 339 342 345 345 346 347 349 350 352 353 355 357 358 358 359 360 1 1 0 358 356 355 353 351 348 344 339 333 326 317 308 297 286 277 270 264 262
250 255 259 262 269 272 273 275 273 266 261 267 271 269 274 284 292 298 304 308 310 314 314 314 316 317 316 318 321 327 332 335 335 335 333 329 324 322 324 328 332 335 337 339 339 338 338 338 338 340 344 345 345 345 347 349 351 352 353 356 357 357 358 359 360 1 1 359 356 356 355 353 350 347 342 336 329 320 312 302 290 280 271 263 259
248 250 250 249 255 261 262 265 270 269 263 263 272 275 278 285 291 297 303 307 309 311 311 311 312 310 309 312 317 324 330 333 333 333 332 329 325 321 322 326 332 338 342 343 342 341 341 341 339 340 342 344 344 344 345 347 350 351 352 354 356 357 358 358 359 0 1 360 357 356 356 354 352 349 344 339 332 324 315 305 294 285 275 265 259
240 241 242 242 245 251 254 255 263 269 266 263 269 276 278 283 288 293 298 302 305 306 305 305 306 304 305 309 316 323 328 330 331 331 330 329 326 322 320 321 324 331 337 339 341 342 342 341 340 340 341 343 343 343 344 345 348 350 351 353 355 356 357 358 358 359 1 1 359 357 356 355 352 350 347 342 336 328 319 308 298 288 279 269 262
233 236 240 245 249 252 254 253 258 265 265 263 266 273 276 280 285 290 294 298 301 302 300 300 302 302 303 308 316 322 325 327 329 329 328 327 326 324 324 324 324 326 330 333 335 337 339 339 338 338 339 341 342 342 342 344 346 349 350 351 353 355 357 358 358 358 360 1 359 357 356 354 352 351 348 344 339 332 324 313 303 292 283 275 267
238 239 241 247 253 254 255 255 257 262 264 263 265 270 274 277 281 287 290 294 298 299 298 299 301 302 303 307 314 319 322 325 326 326 324 324 325 324 325 327 329 329 330 332 333 335 338 339 337 336 338 340 342 342 342 342 344 347 349 350 352 354 356 357 357 358 359 0 360 357 355 354 353 351 350 347 342 336 329 320 310 300 290 282 274
241 241 242 246 251 252 253 255 257 259 261 262 264 268 271 275 279 283 286 291 295 297 297 298 299 299 299 305 311 316 320 322 323 322 321 322 322 322 322 325 328 330 331 333 334 337 340 340 338 337 337 339 341 341 341 341 342 345 348 349 350 352 355 356 357 357 359 0 0 358 355 354 353 351 351 348 345 341 337 331 322 312 301 291 283
241 240 242 245 249 250 252 256 258 258 259 261 263 266 270 273 276 280 284 290 294 294 294 295 295 294 296 303 310 315 318 320 320 319 319 321 322 323 321 322 325 328 331 333 334 336 338 339 338 337 337 338 340 340 340 340 341 342 345 347 348 350 354 356 356 357 358 359 360 359 356 354 353 352 351 350 348 345 341 338 334 328 319 310 300
243 243 244 247 250 251 252 254 256 255 257 259 262 264 267 270 274 279 284 289 291 290 291 293 292 291 295 303 309 313 316 318 316 315 318 321 323 323 321 320 322 325 328 331 332 334 336 337 337 337 336 337 338 339 339 340 340 340 343 345 346 348 352 354 355 356 357 359 359 359 356 354 353 352 352 352 349 346 345 343 342 340 335 329 321
247 247 248 250 252 254 253 252 251 252 255 258 260 263 266 270 275 280 284 287 287 286 289 291 289 290 296 302 306 310 313 314 313 313 316 319 319 319 320 321 321 323 326 328 329 331 334 335 336 336 336 336 337 338 338 339 339 339 340 343 345 346 349 353 354 356 357 358 359 359 357 354 353 353 353 354 351 349 349 350 350 348 345 340 335
248 250 251 253 254 255 253 250 249 250 253 255 258 263 268 273 278 281 283 283 283 283 287 288 287 291 297 300 304 308 311 312 311 311 312 313 314 316 318 320 320 322 323 325 326 329 331 334 334 334 335 336 337 338 338 338 338 338 339 341 343 345 347 351 353 355 356 357 358 358 357 355 353 353 353 354 353 352 355 358 357 356 353 350 346
249 250 252 253 255 255 253 252 252 252 252 254 258 264 271 276 279 280 280 280 280 282 284 285 287 292 296 298 302 306 308 309 307 305 306 308 311 314 316 316 317 319 322 323 324 327 329 331 331 331 332 334 335 337 337 337 336 337 337 339 341 343 345 349 352 354 355 357 358 358 357 355 353 352 353 354 354 356 0 3 2 1 0 358 357
248 248 249 250 252 251 251 252 252 252 253 257 262 268 273 276 277 277 277 277 278 279 281 284 287 291 293 296 299 302 303 302 299 298 301 305 309 312 313 314 315 318 321 322 323 324 327 328 329 329 330 332 334 335 335 335 334 335 336 337 339 341 343 346 351 353 354 356 357 357 356 355 352 351 352 352 354 358 3 6 5 4 5 5 5
245 243 243 244 245 246 248 249 249 251 256 261 266 270 273 275 275 275 276 275 275 277 280 282 285 287 290 293 296 298 299 297 294 295 300 304 307 309 310 312 314 317 319 320 322 323 325 327 328 329 330 332 333 334 334 333 332 332 333 335 337 339 341 344 348 352 353 354 356 356 356 354 352 350 351 351 353 358 4 6 7 7 8 8 8
242 239 240 241 241 242 245 247 250 253 257 261 264 267 269 271 272 272 272 272 273 276 279 280 281 283 286 289 291 293 296 296 295 296 299 301 303 305 307 310 314 316 318 320 322 323 324 325 326 327 329 332 333 334 333 331 329 329 331 333 335 337 339 342 346 350 352 353 355 355 355 354 351 349 349 350 352 356 2 5 6 6 7 7 7
243 241 243 245 246 247 249 251 253 255 257 259 262 264 267 269 269 268 267 268 270 273 275 277 279 281 283 284 285 288 292 294 296 296 296 296 298 301 306 310 313 315 318 320 321 322 322 323 324 326 329 331 333 334 333 331 327 326 328 331 333 335 337 339 343 347 350 352 353 354 354 353 350 348 347 349 350 354 358 1 3 4 4 3 2
246 245 245 246 249 252 253 254 254 256 257 259 261 263 266 267 265 262 261 263 267 271 273 275 278 281 282 283 284 287 290 292 293 293 291 291 294 300 304 308 311 314 316 318 318 319 319 320 321 324 327 330 331 333 333 330 326 324 325 328 331 333 335 337 341 345 348 350 352 353 354 352 349 346 345 346 348 351 354 357 359 0 0 360 358
249 250 251 252 253 255 256 256 255 256 257 259 261 261 261 260 259 258 259 263 268 271 273 276 280 282 282 282 283 286 288 290 290 288 286 287 292 297 301 305 308 311 314 315 315 316 317 318 319 321 324 328 330 332 332 330 325 322 323 326 329 331 333 335 338 342 347 349 350 352 352 351 348 344 341 343 345 347 350 352 354 355 356 356 355
250 254 258 262 264 264 261 258 256 255 256 259 260 257 254 253 256 259 263 267 270 273 276 280 282 280 278 279 282 285 287 287 285 283 284 287 292 296 299 302 305 308 311 311 311 312 314 316 317 319 323 327 329 332 332 329 324 320 320 323 327 329 330 333 336 340 345 347 349 350 351 350 347 342 338 338 341 343 346 347 349 350 352 352 353
251 253 255 257 259 260 260 258 257 255 255 255 254 252 253 255 257 261 265 269 272 275 276 277 277 275 274 276 280 283 284 282 280 281 284 289 293 296 298 301 303 306 307 308 307 309 311 314 317 319 324 327 329 330 331 327 322 318 317 321 325 327 328 331 334 338 343 346 347 348 349 349 346 341 335 335 337 339 342 344 345 346 348 349 351
250 252 249 242 238 239 246 253 256 256 254 252 251 251 254 256 258 262 266 269 271 273 272 271 272 273 275 277 279 280 279 277 277 281 286 290 294 296 298 301 303 304 305 306 306 306 308 311 316 320 324 326 327 329 329 326 321 316 316 319 323 325 326 329 332 336 341 344 345 347 348 347 345 340 334 332 334 337 339 342 343 343 345 347 349
247 251 249 242 239 238 238 240 246 253 258 257 255 255 256 257 260 264 267 268 268 269 270 271 274 275 276 276 275 275 274 275 278 282 286 289 292 294 297 300 302 303 304 304 305 306 306 310 315 320 322 324 325 327 327 325 320 315 314 317 321 323 324 327 330 334 339 342 344 345 346 346 344 338 332 330 332 334 336 339 341 342 343 344 347
246 248 249 248 248 247 241 239 245 256 262 262 260 260 260 261 263 265 266 266 267 267 269 273 275 276 275 274 273 272 273 275 278 281 283 286 290 293 295 298 300 301 301 302 303 304 306 310 315 318 320 321 323 325 325 323 318 314 314 315 318 321 323 325 329 333 337 340 342 343 345 345 342 337 331 328 329 332 334 337 339 340 341 343 344
250 249 249 249 249 249 248 247 251 258 261 262 262 263 263 264 265 265 265 265 266 267 271 276 276 275 274 273 273 274 275 276 278 280 283 286 289 291 293 295 296 297 299 300 301 303 306 310 313 315 317 319 321 322 323 321 316 313 313 314 316 318 320 323 327 331 336 339 341 341 343 344 341 336 330 327 329 330 332 335 337 338 339 340 341
255 254 253 252 251 252 253 254 256 258 259 260 261 262 263 263 264 265 265 265 265 266 269 272 272 272 273 274 274 275 276 277 278 281 283 285 287 289 292 293 294 295 298 299 301 304 307 310 311 312 314 317 319 320 321 318 314 312 312 312 314 316 318 321 326 330 334 337 339 340 341 342 340 334 328 325 326 328 330 333 335 335 336 337 338
261 262 261 259 257 257 257 258 259 260 260 260 260 261 261 262 263 264 264 264 264 264 263 263 265 268 272 275 274 274 276 277 279 282 283 285 286 288 290 292 294 296 299 301 303 305 307 308 308 310 313 315 316 318 318 315 311 310 310 311 312 314 316 319 324 329 333 336 337 338 340 341 338 332 325 322 324 325 327 330 332 333 334 336 337
263 267 268 266 263 261 259 259 259 259 259 260 260 261 262 262 263 263 263 263 262 261 260 260 262 265 269 272 273 274 276 278 280 282 283 284 286 288 290 292 295 298 300 301 303 304 304 305 307 309 312 313 314 315 314 311 309 309 309 309 311 313 314 318 323 328 331 334 336 337 339 340 337 330 322 320 322 323 325 329 332 333 334 335 337
265 268 270 269 267 265 262 261 259 258 258 258 259 260 261 262 262 262 261 260 260 259 259 259 261 263 266 269 271 273 274 276 279 281 282 283 285 286 288 290 293 296 298 299 300 301 302 304 306 309 310 311 311 311 309 307 306 308 308 308 310 311 313 317 322 326 330 333 335 336 338 338 335 328 321 319 322 323 325 328 331 333 334 335 336
267 269 269 269 268 266 265 264 264 262 261 260 259 259 260 261 262 263 262 261 261 261 261 261 262 263 265 267 269 271 272 274 276 278 279 280 281 283 285 288 291 294 296 297 299 300 301 303 305 307 308 308 308 307 305 304 305 306 306 306 308 310 312 317 322 326 329 332 333 335 337 337 334 326 320 319 322 324 326 328 330 332 334 335 335
268 268 268 267 267 266 265 265 266 267 265 264 262 261 260 260 261 262 263 263 263 263 263 264 264 264 265 266 268 270 271 272 273 274 275 277 279 282 285 288 290 293 294 296 298 299 301 302 304 305 305 306 305 303 302 302 303 303 303 304 306 308 311 316 321 326 329 331 333 334 336 336 333 325 319 319 322 324 326 328 329 331 333 334 335
267 267 267 267 267 266 265 265 266 267 267 266 265 263 262 262 261 262 262 263 264 265 266 266 267 267 267 268 269 270 270 271 272 274 276 278 280 283 285 287 289 291 293 295 297 298 299 300 301 302 302 303 303 302 301 300 298 298 300 303 304 307 310 315 321 325 328 330 332 334 335 335 332 325 319 320 321 323 326 329 330 330 331 333 333
266 267 267 267 266 266 265 264 265 265 265 265 264 264 264 263 263 263 263 264 265 266 267 269 269 270 270 271 271 272 272 273 274 276 278 279 281 283 285 287 289 291 293 295 296 297 297 297 298 299 301 302 301 301 299 295 292 293 296 299 302 305 309 314 320 324 327 329 331 333 334 334 331 325 321 321 322 323 326 328 330 330 330 331 333
265 266 267 266 265 263 262 261 261 262 263 263 263 263 263 264 264 264 264 265 266 267 268 270 271 272 273 274 275 275 276 277 278 279 279 280 282 284 286 288 290 292 293 294 295 294 294 294 296 298 299 299 300 299 296 290 287 289 293 296 299 304 309 314 319 324 326 329 331 333 334 333 329 324 321 321 322 323 325 327 330 330 331 331 332
262 264 264 264 262 261 259 258 258 258 260 262 263 263 263 264 265 265 266 267 268 268 269 271 272 273 274 275 275 276 277 278 279 280 281 282 284 286 288 289 291 291 292 292 292 292 291 292 293 293 294 295 295 294 291 286 285 287 290 294 299 304 310 314 319 323 326 328 330 332 333 332 328 323 321 322 323 325 326 327 329 330 331 331 331
260 262 263 263 262 260 259 257 257 257 258 260 261 262 263 264 265 266 267 268 269 270 271 271 272 273 274 274 274 275 276 277 279 280 281 283 284 286 287 288 289 289 289 290 290 290 290 290 289 287 287 288 289 288 285 283 283 285 289 293 299 305 309 313 318 322 325 326 329 331 332 332 328 323 321 322 323 325 327 328 329 329 330 330 331
255 256 258 260 260 260 259 258 257 257 257 258 259 260 262 263 265 266 267 268 269 270 271 271 271 272 272 273 274 274 276 277 278 279 280 282 283 284 285 286 286 286 287 288 288 289 289 288 285 282 280 281 281 280 279 280 281 284 288 293 298 303 308 312 317 321 323 324 327 330 332 330 327 323 320 320 322 324 326 327 328 329 329 330 331
248 251 255 258 258 259 260 259 258 257 258 258 258 259 260 262 263 265 266 267 268 269 270 270 270 271 271 272 273 274 275 276 277 278 279 280 281 282 283 283 284 285 285 286 287 287 286 284 282 278 274 273 274 274 276 278 281 284 289 293 297 302 307 312 316 319 320 322 325 329 331 328 324 320 318 318 319 321 323 325 327 328 329 329 330
246 249 255 260 261 260 261 261 260 259 259 258 258 258 259 260 261 262 263 264 266 267 269 269 270 270 271 272 272 273 274 275 276 277 278 279 280 280 281 282 283 284 285 285 285 285 283 281 279 274 268 265 267 271 274 277 280 284 287 292 298 303 307 310 314 316 317 319 323 327 329 327 321 316 315 315 316 318 320 322 324 326 327 329 329
Height
11004 11005 11005 11005 11005 11004 11004 11003 11003 11003 11004 11004 11003 11002 11002 11001 11001 11000 10999 10998 10996 10994 10992 10990 10989 10987 10986 10985 10983 10982 10980 10978 10975 10973 10971 10969 10967 10965 10962 10960 10957 10954 10951 10948 10944 10941 10936 10931 10926 10922 10917 10912 10906 10901 10895 10890 10884 10879 10873 10868 10864 10860 10855 10851 10847 10843 10841 10839 10837 10836 10834 10832 10831 10830 10830 10830 10831 10832 10833 10834 10836 10838 10840 10842 10844
11003 11003 11004 11004 11004 11003 11003 11003 11003 11002 11003 11003 11002 11002 11001 11000 10999 10999 10998 10997 10995 10994 10993 10991 10989 10987 10986 10984 10982 10981 10979 10976 10974 10973 10971 10968 10966 10964 10962 10960 10957 10954 10951 10948 10944 10940 10936 10931 10926 10921 10916 10911 10906 10901 10895 10890 10884 10879 10873 10867 10863 10858 10854 10850 10845 10841 10838 10836 10834 10832 10831 10829 10828 10827 10826 10826 10826 10827 10828 10829 10831 10833 10835 10836 10838
11002 11002 11002 11003 11003 11003 11002 11002 11002 11002 11002 11002 11001 11001 11000 10999 10998 10997 10996 10995 10994 10993 10992 10990 10988 10987 10985 10983 10981 10979 10977 10975 10974 10972 10970 10968 10966 10964 10961 10959 10956 10953 10950 10947 10944 10940 10936 10931 10926 10921 10916 10911 10906 10901 10896 10890 10885 10879 10873 10867 10862 10857 10853 10848 10844 10840 10836 10834 10832 10830 10828 10826 10825 10823 10823 10822 10822 10822 10823 10824 10825 10827 10828 10830 10832
11001 11001 11001 11001 11001 11002 11002 11001 11001 11001 11001 11001 11000 10999 10999 10998 10996 10995 10995 10994 10993 10992 10990 10989 10987 10985 10983 10981 10980 10978 10976 10974 10972 10971 10969 10967 10965 10963 10960 10958 10956 10953 10950 10946 10943 10940 10935 10931 10926 10921 10916 10911 10906 10901 10897 10891 10885 10879 10873 10867 10861 10856 10851 10847 10843 10839 10835 10832 10829 10828 10826 10824 10822 10820 10819 10819 10818 10818 10818 10819 10820 10821 10822 10824 10825
11000 11000 11000 11000 11000 11000 11000 11000 11000 11000 10999 10999 10999 10998 10998 10997 10996 10995 10994 10993 10993 10991 10990 10988 10987 10985 10983 10981 10979 10977 10976 10974 10972 10970 10968 10966 10964 10961 10959 10957 10955 10952 10949 10946 10943 10939 10935 10930 10926 10921 10917 10912 10907 10902 10897 10892 10886 10879 10873 10867 10861 10855 10850 10846 10842 10838 10834 10831 10828 10825 10824 10821 10819 10818 10816 10815 10814 10814 10814 10815 10816 10816 10817 10818 10819
10998 10998 10998 10998 10998 10999 10999 10999 10999 10998 10998 10998 10998 10997 10996 10996 10995 10994 10993 10993 10992 10991 10990 10988 10986 10984 10982 10980 10979 10977 10975 10973 10971 10969 10967 10965 10963 10960 10957 10956 10953 10951 10948 10945 10942 10938 10934 10930 10926 10922 10917 10912 10907 10903 10897 10892 10886 10880 10873 10867 10861 10855 10850 10845 10841 10837 10833 10830 10826 10824 10821 10819 10817 10815 10814 10813 10812 10811 10811 10811 10811 10812 10813 10813 10815
10996 10997 10997 10997 10997 10997 10998 10998 10997 10997 10996 10996 10996 10995 10995 10994 10993 10992 10992 10991 10991 10991 10989 10988 10986 10984 10982 10980 10978 10976 10975 10973 10971 10969 10966 10964 10961 10958 10956 10954 10952 10950 10947 10945 10941 10938 10934 10930 10926 10922 10917 10913 10908 10902 10897 10891 10885 10880 10874 10868 10862 10856 10849 10844 10840 10836 10832 10829 10826 10822 10819 10817 10815 10813 10811 10810 10809 10808 10808 10807 10807 10808 10809 10810 10811
10994 10995 10996 10995 10995 10995 10996 10996 10996 10995 10994 10994 10994 10993 10993 10992 10991 10991 10990 10989 10989 10989 10988 10986 10984 10983 10981 10979 10977 10975 10974 10972 10970 10967 10965 10963 10960 10957 10955 10953 10951 10949 10946 10944 10940 10937 10933 10929 10925 10921 10917 10912 10907 10902 10896 10891 10885 10880 10874 10868 10862 10856 10849 10843 10838 10834 10831 10827 10824 10821 10818 10815 10812 10810 10809 10807 10806 10806 10805 10805 10804 10804 10805 10805 10807
10992 10993 10994 10994 10993 10994 10994 10993 10993 10993 10993 10992 10992 10992 10991 10990 10990 10989 10988 10987 10987 10986 10985 10984 10983 10981 10979 10978 10976 10974 10972 10970 10968 10966 10964 10961 10959 10956 10954 10952 10950 10948 10946 10943 10939 10936 10932 10927 10923 10919 10915 10911 10906 10901 10896 10890 10885 10880 10874 10869 10862 10856 10850 10843 10837 10833 10829 10826 10822 10819 10816 10813 10810 10808 10806 10805 10804 10803 10802 10802 10801 10801 10802 10802 10803
10990 10991 10992 10992 10992 10992 10992 10992 10991 10991 10991 10990 10990 10990 10989 10989 10988 10988 10987 10985 10985 10984 10983 10982 10980 10979 10978 10976 10974 10972 10970 10968 10966 10965 10962 10960 10958 10955 10953 10951 10949 10947 10945 10942 10938 10935 10931 10926 10922 10918 10913 10909 10905 10900 10895 10890 10885 10880 10874 10869 10862 10856 10850 10843 10837 10832 10828 10824 10820 10817 10814 10811 10809 10806 10804 10803 10801 10800 10800 10799 10799 10798 10799 10799 10800
10988 10989 10990 10990 10990 10990 10990 10990 10990 10989 10989 10988 10988 10988 10988 10987 10987 10986 10985 10984 10982 10982 10981 10979 10978 10977 10976 10974 10972 10970 10967 10966 10964 10963 10961 10959 10957 10954 10952 10950 10948 10946 10943 10941 10937 10934 10930 10926 10921 10917 10913 10908 10904 10900 10895 10890 10885 10879 10874 10868 10862 10856 10850 10844 10838 10832 10827 10823 10819 10815 10812 10809 10807 10804 10802 10801 10799 10798 10797 10796 10796 10796 10796 10796 10797
10985 10986 10987 10988 10988 10987 10988 10988 10988 10988 10987 10986 10986 10986 10985 10985 10985 10984 10983 10982 10980 10979 10978 10977 10976 10975 10973 10972 10970 10968 10966 10964 10962 10960 10959 10957 10955 10953 10951 10948 10946 10944 10942 10939 10936 10933 10929 10925 10921 10916 10912 10907 10903 10899 10894 10889 10884 10879 10873 10867 10862 10856 10850 10844 10838 10832 10827 10823 10818 10815 10811 10808 10805 10803 10801 10799 10797 10796 10795 10794 10794 10793 10793 10794 10794
10983 10983 10984 10985 10986 10985 10985 10986 10986 10985 10985 10984 10984 10984 10983 10982 10982 10982 10981 10980 10978 10977 10976 10975 10974 10973 10971 10969 10968 10966 10964 10962 10960 10958 10956 10955 10953 10951 10949 10947 10945 10943 10940 10937 10935 10931 10928 10924 10920 10916 10911 10907 10903 10898 10893 10888 10883 10878 10873 10867 10862 10856 10850 10844 10838 10832 10826 10822 10818 10814 10810 10807 10804 10801 10799 10797 10795 10794 10793 10792 10792 10791 10791 10791 10791
10980 10981 10980 10982 10983 10983 10983 10983 10983 10983 10982 10982 10982 10981 10980 10979 10979 10979 10978 10978 10976 10975 10973 10973 10972 10971 10969 10967 10965 10964 10962 10960 10958 10956 10954 10953 10951 10949 10947 10945 10943 10941 10938 10936 10933 10930 10926 10922 10918 10915 10911 10906 10901 10897 10893 10888 10883 10878 10873 10867 10862 10856 10850 10844 10838 10832 10826 10821 10817 10813 10809 10806 10803 10800 10797 10795 10793 10792 10791 10790 10790 10789 10789 10789 10789
10977 10978 10978 10979 10980 10979 10980 10981 10980 10980 10980 10979 10979 10978 10977 10976 10976 10976 10976 10976 10974 10973 10971 10970 10969 10968 10967 10965 10963 10962 10960 10958 10956 10954 10952 10951 10949 10947 10945 10943 10941 10939 10936 10934 10931 10928 10925 10921 10917 10913 10910 10905 10900 10896 10892 10888 10883 10878 10873 10867 10862 10855 10849 10843 10838 10832 10826 10821 10817 10812 10809 10805 10802 10799 10796 10794 10792 10790 10788 10787 10787 10787 10787 10787 10787
10973 10974 10974 10975 10975 10975 10976 10977 10977 10977 10977 10976 10975 10975 10974 10973 10973 10974 10974 10973 10972 10971 10969 10968 10967 10966 10964 10962 10960 10959 10957 10956 10954 10952 10950 10948 10947 10945 10943 10941 10939 10937 10935 10932 10929 10926 10923 10919 10915 10911 10908 10904 10900 10895 10891 10887 10883 10878 10873 10867 10862 10856 10849 10843 10838 10833 10827 10821 10816 10811 10807 10804 10801 10798 10795 10793 10790 10788 10786 10785 10784 10784 10784 10784 10784
10966 10967 10968 10969 10970 10970 10972 10973 10973 10974 10974 10973 10972 10971 10970 10970 10970 10971 10971 10970 10969 10968 10966 10965 10964 10962 10961 10959 10958 10957 10955 10953 10951 10949 10947 10946 10944 10943 10941 10939 10937 10935 10933 10930 10927 10924 10921 10918 10914 10910 10906 10903 10899 10895 10890 10886 10882 10877 10872 10867 10862 10856 10850 10843 10837 10832 10827 10821 10815 10810 10806 10802 10799 10796 10794 10791 10789 10787 10785 10783 10782 10781 10781 10781 10781
10959 10960 10963 10965 10966 10967 10968 10969 10970 10970 10970 10969 10969 10968 10967 10967 10968 10968 10968 10967 10966 10965 10963 10962 10961 10959 10958 10957 10956 10955 10953 10950 10948 10946 10945 10943 10942 10941 10939 10937 10935 10933 10931 10928 10925 10922 10919 10916 10912 10908 10905 10902 10898 10893 10889 10885 10881 10877 10872 10867 10861 10856 10850 10843 10837 10832 10826 10820 10815 10810 10806 10802 10798 10795 10792 10790 10787 10785 10784 10782 10781 10780 10779 10779 10779
10954 10957 10960 10962 10962 10963 10964 10965 10966 10966 10966 10966 10965 10964 10964 10964 10964 10965 10964 10964 10963 10962 10960 10959 10958 10957 10956 10955 10954 10952 10950 10948 10946 10944 10942 10941 10940 10939 10937 10935 10932 10930 10928 10926 10923 10921 10918 10914 10910 10907 10903 10900 10896 10892 10888 10883 10879 10875 10871 10866 10861 10856 10850 10844 10838 10832 10826 10821 10815 10810 10806 10802 10798 10795 10791 10789 10786 10784 10782 10781 10779 10778 10777 10777 10776
10952 10955 10958 10958 10958 10958 10960 10961 10962 10962 10962 10962 10962 10961 10960 10961 10961 10961 10960 10960 10960 10958 10957 10956 10955 10955 10953 10952 10951 10949 10948 10946 10944 10942 10940 10939 10937 10936 10935 10933 10930 10928 10926 10924 10921 10919 10916 10913 10909 10905 10902 10898 10895 10891 10887 10882 10878 10874 10870 10866 10861 10856 10851 10845 10839 10833 10827 10822 10816 10810 10805 10801 10797 10794 10790 10787 10785 10782 10781 10779 10778 10777 10776 10775 10775
10949 10952 10953 10954 10954 10954 10956 10957 10958 10958 10958 10958 10958 10958 10957 10957 10957 10957 10957 10957 10956 10955 10954 10953 10953 10952 10951 10950 10948 10947 10945 10943 10941 10939 10938 10937 10935 10934 10932 10930 10928 10926 10924 10922 10919 10916 10914 10911 10908 10904 10900 10897 10894 10890 10886 10882 10877 10873 10870 10865 10861 10856 10851 10845 10840 10834 10828 10823 10817 10811 10806 10802 10797 10794 10790 10787 10784 10781 10779 10778 10776 10775 10774 10774 10773
10945 10947 10949 10949 10949 10950 10952 10954 10954 10953 10954 10955 10955 10954 10953 10953 10954 10954 10954 10953 10953 10951 10951 10951 10951 10949 10948 10947 10946 10944 10942 10941 10938 10937 10935 10934 10933 10931 10929 10928 10926 10924 10922 10919 10917 10914 10911 10909 10906 10902 10899 10895 10892 10889 10885 10881 10877 10873 10869 10865 10860 10855 10850 10845 10840 10834 10828 10823 10818 10812 10808 10803 10799 10795 10791 10787 10784 10781 10779 10777 10775 10774 10773 10772 10772
10942 10943 10944 10944 10944 10945 10947 10949 10949 10949 10950 10951 10950 10949 10949 10950 10951 10951 10950 10950 10949 10948 10948 10948 10948 10946 10945 10945 10943 10941 10940 10938 10936 10934 10933 10932 10930 10928 10927 10925 10923 10921 10919 10917 10914 10912 10909 10906 10904 10901 10897 10893 10890 10887 10883 10880 10876 10872 10868 10864 10860 10855 10850 10845 10840 10835 10829 10823 10818 10813 10808 10804 10800 10796 10793 10789 10786 10783 10780 10777 10775 10774 10772 10771 10770
10937 10938 10938 10938 10939 10940 10942 10944 10944 10945 10947 10947 10946 10945 10946 10947 10947 10947 10946 10946 10945 10944 10945 10945 10944 10943 10943 10942 10940 10939 10937 10935 10933 10931 10930 10929 10928 10926 10924 10922 10920 10918 10916 10914 10912 10909 10907 10904 10902 10899 10896 10892 10888 10885 10882 10878 10874 10871 10867 10863 10859 10854 10850 10845 10840 10835 10829 10824 10819 10814 10809 10804 10801 10797 10794 10790 10787 10784 10781 10778 10776 10774 10773 10771 10770
10933 10933 10934 10934 10935 10936 10938 10939 10940 10942 10943 10943 10942 10942 10943 10943 10943 10942 10942 10942 10941 10941 10941 10942 10941 10941 10940 10939 10938 10936 10935 10933 10931 10929 10927 10926 10925 10923 10921 10919 10917 10916 10914 10911 10909 10906 10904 10902 10900 10897 10894 10890 10887 10883 10880 10876 10873 10869 10866 10862 10858 10854 10850 10845 10840 10835 10830 10824 10819 10814 10810 10805 10801 10798 10795 10791 10788 10785 10782 10779 10777 10775 10774 10772 10771
10926 10927 10928 10929 10931 10932 10933 10935 10937 10939 10939 10938 10938 10939 10939 10939 10938 10938 10938 10938 10937 10937 10938 10939 10939 10938 10936 10935 10934 10933 10932 10931 10929 10927 10925 10924 10922 10921 10919 10917 10915 10913 10911 10909 10906 10904 10902 10899 10897 10895 10891 10888 10885 10881 10878 10875 10871 10868 10864 10861 10857 10853 10849 10845 10840 10835 10830 10825 10820 10815 10810 10806 10802 10799 10796 10793 10790 10786 10783 10781 10779 10777 10775 10773 10772
10917 10920 10922 10924 10926 10927 10929 10932 10934 10935 10934 10934 10935 10935 10935 10934 10934 10934 10934 10933 10932 10933 10935 10936 10936 10934 10932 10931 10931 10930 10929 10928 10926 10924 10922 10921 10920 10918 10916 10914 10912 10910 10908 10906 10904 10901 10899 10897 10895 10892 10889 10886 10882 10879 10876 10873 10869 10866 10863 10859 10856 10852 10848 10845 10840 10835 10830 10825 10820 10816 10811 10806 10803 10799 10796 10794 10791 10788 10785 10782 10780 10778 10777 10775 10773
10910 10912 10916 10918 10920 10922 10925 10928 10929 10929 10929 10929 10930 10930 10929 10929 10929 10929 10929 10928 10928 10929 10931 10932 10932 10931 10929 10928 10927 10926 10925 10924 10922 10920 10919 10918 10917 10915 10913 10912 10909 10907 10905 10903 10901 10899 10896 10894 10892 10890 10887 10884 10880 10877 10873 10870 10867 10864 10861 10858 10854 10851 10847 10844 10840 10835 10830 10825 10820 10816 10811 10807 10803 10800 10797 10794 10791 10789 10786 10783 10781 10779 10778 10776 10775
10905 10906 10911 10914 10916 10919 10921 10923 10924 10923 10923 10924 10925 10925 10925 10925 10925 10925 10924 10923 10924 10926 10927 10927 10928 10927 10926 10924 10923 10922 10921 10920 10918 10917 10916 10915 10914 10912 10910 10909 10907 10905 10902 10900 10898 10896 10894 10891 10889 10887 10884 10881 10878 10874 10871 10868 10864 10862 10859 10856 10853 10849 10846 10842 10838 10834 10829 10825 10820 10815 10811 10806 10803 10799 10797 10794 10792 10789 10787 10784 10782 10780 10779 10777 10776
10901 10902 10906 10910 10914 10916 10917 10918 10917 10918 10919 10920 10920 10920 10921 10921 10920 10919 10919 10919 10920 10922 10922 10923 10924 10923 10920 10918 10918 10918 10917 10916 10915 10914 10913 10912 10910 10909 10907 10905 10904 10902 10899 10897 10896 10894 10891 10889 10886 10884 10881 10878 10875 10872 10869 10866 10862 10859 10856 10854 10851 10848 10844 10841 10837 10833 10828 10824 10819 10814 10810 10806 10802 10799 10796 10794 10792 10789 10787 10785 10783 10781 10779 10778 10776
10899 10900 10903 10908 10912 10913 10913 10913 10914 10915 10915 10915 10916 10916 10917 10916 10914 10914 10916 10916 10917 10917 10918 10920 10922 10920 10915 10912 10913 10913 10912 10911 10911 10910 10909 10908 10907 10905 10904 10902 10900 10898 10896 10894 10892 10891 10888 10886 10884 10881 10879 10876 10872 10868 10866 10863 10860 10857 10854 10851 10849 10846 10842 10839 10835 10832 10827 10823 10818 10813 10809 10805 10801 10798 10796 10794 10791 10789 10787 10785 10783 10781 10780 10778 10777
10897 10898 10902 10907 10910 10910 10908 10907 10909 10910 10910 10910 10911 10911 10910 10909 10909 10911 10913 10913 10913 10914 10915 10917 10918 10915 10910 10908 10908 10908 10908 10907 10906 10905 10905 10904 10903 10902 10900 10898 10897 10895 10893 10891 10889 10887 10885 10883 10880 10878 10876 10874 10870 10866 10862 10859 10856 10854 10851 10849 10846 10843 10840 10836 10833 10830 10826 10821 10817 10812 10808 10804 10800 10797 10795 10793 10791 10789 10787 10785 10783 10781 10779 10778 10776
10894 10896 10901 10906 10907 10906 10904 10902 10901 10902 10903 10905 10906 10904 10903 10904 10906 10908 10908 10908 10909 10910 10911 10912 10912 10909 10905 10904 10904 10904 10903 10903 10902 10901 10901 10899 10899 10897 10896 10894 10893 10891 10889 10887 10885 10884 10882 10880 10877 10874 10872 10870 10867 10864 10861 10857 10854 10851 10849 10846 10844 10841 10838 10834 10831 10828 10824 10820 10815 10811 10806 10802 10799 10796 10793 10791 10789 10788 10786 10784 10782 10780 10778 10777 10775
10887 10890 10896 10899 10899 10901 10903 10903 10899 10896 10898 10899 10899 10898 10898 10900 10901 10903 10903 10903 10905 10906 10905 10905 10906 10904 10901 10900 10900 10899 10899 10899 10898 10897 10896 10895 10894 10893 10891 10890 10888 10886 10884 10883 10881 10880 10879 10876 10874 10871 10868 10866 10863 10861 10858 10854 10851 10848 10846 10844 10842 10839 10835 10832 10829 10826 10822 10818 10814 10809 10805 10801 10797 10794 10792 10790 10788 10786 10785 10783 10781 10779 10777 10776 10774
10881 10883 10887 10890 10892 10894 10897 10898 10896 10893 10892 10893 10892 10892 10893 10895 10896 10898 10898 10899 10900 10900 10897 10897 10899 10899 10896 10896 10896 10895 10895 10894 10893 10893 10892 10891 10890 10889 10887 10885 10884 10882 10880 10879 10877 10876 10875 10873 10870 10868 10865 10863 10860 10857 10854 10851 10848 10846 10843 10841 10839 10836 10833 10830 10827 10823 10820 10816 10812 10808 10803 10799 10795 10792 10790 10788 10786 10785 10783 10782 10780 10778 10776 10774 10773
10875 10877 10879 10882 10884 10886 10888 10889 10889 10887 10886 10887 10886 10886 10887 10888 10890 10891 10892 10892 10894 10894 10892 10892 10893 10893 10891 10891 10891 10890 10890 10889 10888 10888 10887 10886 10885 10884 10882 10881 10879 10878 10877 10875 10874 10872 10871 10869 10866 10864 10862 10859 10857 10853 10850 10847 10845 10842 10840 10838 10836 10834 10831 10827 10824 10821 10818 10814 10810 10806 10801 10797 10793 10790 10788 10787 10785 10783 10781 10780 10778 10776 10775 10773 10771
10868 10870 10872 10874 10876 10877 10879 10881 10881 10880 10879 10880 10880 10880 10881 10881 10882 10883 10885 10886 10887 10888 10888 10888 10886 10885 10885 10885 10885 10885 10885 10884 10883 10883 10882 10881 10880 10878 10877 10876 10875 10873 10872 10871 10869 10868 10866 10864 10863 10860 10858 10855 10853 10850 10847 10844 10841 10839 10837 10835 10833 10831 10828 10825 10822 10819 10815 10812 10808 10803 10799 10795 10791 10788 10786 10785 10783 10782 10780 10778 10776 10775 10773 10772 10770
10861 10863 10865 10867 10868 10869 10870 10871 10872 10872 10873 10873 10873 10874 10874 10874 10875 10876 10878 10879 10881 10882 10884 10884 10880 10878 10878 10879 10879 10879 10879 10878 10878 10877 10877 10875 10874 10873 10872 10871 10870 10869 10868 10866 10865 10863 10862 10860 10858 10856 10854 10851 10849 10846 10843 10840 10838 10836 10834 10832 10831 10828 10825 10822 10819 10816 10813 10810 10806 10801 10797 10793 10789 10786 10785 10783 10782 10780 10778 10777 10775 10773 10772 10770 10769
10856 10857 10858 10860 10860 10861 10861 10861 10862 10863 10864 10865 10866 10868 10868 10868 10869 10870 10871 10872 10874 10876 10877 10877 10874 10872 10873 10873 10873 10873 10873 10872 10872 10872 10871 10870 10869 10868 10867 10866 10865 10864 10862 10861 10859 10858 10856 10855 10854 10852 10849 10847 10844 10841 10839 10836 10834 10833 10831 10829 10828 10825 10822 10819 10817 10814 10811 10807 10803 10799 10795 10791 10787 10784 10783 10782 10780 10779 10777 10775 10774 10772 10770 10769 10767
10848 10850 10852 10853 10854 10854 10854 10854 10854 10854 10854 10855 10857 10858 10859 10860 10861 10862 10863 10865 10866 10868 10868 10868 10868 10867 10867 10867 10867 10867 10867 10867 10867 10866 10865 10863 10862 10862 10861 10860 10859 10858 10857 10855 10854 10852 10851 10850 10848 10846 10844 10842 10839 10837 10834 10832 10830 10829 10828 10826 10825 10822 10820 10817 10814 10811 10808 10805 10801 10797 10793 10789 10785 10783 10781 10780 10779 10777 10775 10774 10772 10770 10769 10767 10765
10839 10841 10843 10845 10847 10847 10847 10848 10848 10848 10848 10848 10848 10849 10850 10851 10852 10854 10855 10857 10858 10859 10860 10861 10861 10861 10861 10861 10861 10861 10861 10861 10860 10859 10858 10857 10856 10855 10855 10854 10853 10852 10851 10850 10848 10847 10845 10844 10842 10841 10839 10837 10835 10832 10830 10828 10826 10825 10824 10823 10821 10819 10817 10814 10811 10809 10806 10803 10799 10795 10791 10786 10783 10781 10779 10778 10777 10776 10774 10772 10771 10769 10767 10765 10763
10830 10832 10833 10836 10838 10839 10839 10840 10841 10841 10841 10841 10842 10842 10843 10844 10844 10846 10847 10849 10850 10851 10852 10853 10853 10854 10853 10854 10854 10854 10854 10854 10854 10853 10851 10850 10849 10849 10848 10848 10847 10847 10845 10844 10842 10840 10839 10837 10836 10835 10833 10831 10829 10827 10825 10824 10823 10822 10821 10819 10818 10816 10813 10811 10808 10806 10803 10800 10796 10792 10788 10784 10781 10778 10777 10776 10776 10774 10772 10770 10769 10767 10765 10763 10761
10820 10822 10823 10825 10827 10828 10830 10831 10832 10832 10833 10834 10834 10834 10835 10836 10837 10838 10839 10841 10842 10843 10844 10845 10846 10846 10846 10846 10847 10848 10847 10847 10847 10846 10845 10843 10842 10842 10842 10842 10841 10840 10839 10838 10836 10834 10832 10831 10830 10829 10827 10826 10824 10822 10821 10820 10819 10818 10817 10816 10814 10812 10810 10808 10805 10803 10800 10797 10793 10789 10786 10782 10778 10776 10775 10774 10773 10773 10771 10769 10767 10765 10764 10762 10760
10810 10811 10812 10814 10816 10817 10819 10820 10821 10823 10824 10825 10825 10826 10827 10828 10829 10830 10831 10832 10834 10835 10836 10837 10838 10838 10838 10839 10840 10840 10840 10840 10840 10839 10838 10837 10836 10835 10835 10835 10834 10834 10833 10831 10830 10828 10826 10825 10824 10823 10822 10820 10819 10818 10817 10816 10815 10814 10813 10812 10810 10809 10807 10804 10802 10800 10797 10794 10791 10787 10783 10779 10776 10775 10773 10772 10771 10771 10770 10768 10766 10764 10762 10760 10758
10800 10801 10802 10803 10805 10806 10807 10809 10811 10812 10814 10815 10816 10817 10819 10820 10821 10822 10823 10824 10825 10827 10827 10828 10829 10829 10829 10830 10832 10833 10832 10832 10832 10832 10831 10830 10829 10828 10828 10828 10827 10827 10826 10825 10824 10822 10821 10819 10818 10817 10816 10815 10814 10813 10812 10812 10811 10810 10809 10808 10807 10805 10803 10801 10799 10797 10795 10791 10788 10784 10780 10777 10774 10773 10772 10771 10770 10769 10767 10767 10765 10763 10761 10759 10757
10790 10791 10792 10793 10794 10795 10797 10798 10800 10802 10803 10805 10807 10808 10810 10811 10813 10814 10815 10816 10818 10819 10820 10820 10821 10821 10821 10822 10823 10824 10824 10824 10824 10825 10824 10823 10822 10822 10821 10820 10820 10819 10819 10818 10818 10817 10815 10814 10813 10812 10811 10810 10809 10809 10808 10808 10807 10806 10805 10804 10803 10801 10799 10798 10796 10794 10792 10788 10785 10782 10778 10774 10772 10771 10770 10770 10769 10768 10766 10764 10763 10761 10759 10757 10755
10779 10781 10782 10784 10785 10786 10787 10789 10791 10793 10794 10796 10798 10799 10801 10803 10804 10806 10807 10809 10810 10811 10812 10813 10813 10813 10813 10814 10815 10815 10816 10816 10817 10817 10817 10816 10815 10814 10814 10813 10813 10813 10812 10812 10811 10811 10810 10809 10808 10806 10806 10805 10805 10804 10804 10803 10803 10802 10801 10800 10799 10798 10796 10794 10793 10791 10788 10785 10782 10779 10776 10773 10770 10769 10768 10768 10767 10766 10765 10763 10761 10759 10758 10756 10753
10770 10772 10774 10775 10777 10779 10780 10781 10783 10785 10786 10788 10789 10791 10792 10794 10796 10798 10799 10801 10802 10803 10805 10806 10806 10806 10806 10806 10807 10808 10808 10809 10809 10809 10809 10809 10808 10808 10807 10807 10806 10806 10805 10805 10805 10804 10804 10803 10803 10802 10801 10801 10800 10800 10800 10799 10798 10798 10797 10796 10795 10793 10792 10791 10790 10788 10785 10783 10780 10777 10774 10771 10769 10767 10766 10765 10764 10763 10762 10761 10759 10757 10755 10753 10751
10764 10765 10766 10768 10769 10771 10773 10775 10777 10778 10779 10781 10782 10783 10785 10786 10788 10790 10792 10793 10794 10796 10797 10799 10800 10800 10799 10799 10800 10800 10801 10802 10802 10802 10802 10802 10802 10802 10801 10801 10800 10800 10799 10799 10798 10798 10797 10797 10797 10797 10797 10796 10796 10796 10796 10795 10794 10793 10793 10792 10791 10790 10789 10788 10786 10784 10782 10780 10777 10774 10771 10769 10767 10766 10765 10763 10762 10760 10759 10758 10757 10755 10753 10751 10749
10760 10760 10760 10761 10763 10765 10767 10769 10770 10771 10773 10774 10775 10777 10778 10779 10781 10783 10785 10786 10787 10788 10790 10791 10793 10793 10794 10794 10794 10794 10794 10795 10795 10795 10796 10796 10796 10796 10795 10795 10794 10794 10793 10792 10792 10792 10791 10791 10792 10792 10792 10792 10792 10792 10791 10791 10790 10789 10789 10788 10787 10786 10785 10784 10782 10780 10778 10776 10774 10772 10769 10766 10765 10763 10762 10761 10760 10758 10757 10755 10754 10752 10750 10748 10746
10757 10757 10756 10756 10757 10759 10762 10763 10764 10765 10766 10768 10769 10770 10772 10773 10774 10776 10778 10779 10781 10782 10783 10783 10785 10786 10788 10788 10788 10788 10788 10788 10789 10789 10789 10790 10790 10790 10789 10789 10788 10788 10787 10786 10786 10786 10786 10785 10786 10787 10787 10787 10788 10787 10787 10787 10786 10785 10784 10784 10783 10782 10781 10780 10779 10777 10775 10773 10771 10768 10766 10764 10762 10761 10759 10758 10757 10756 10754 10753 10751 10749 10748 10746 10744